This demonstration page uses our WeatherBlox Daily Observations layout. Learn more.

Left ArrowRight Arrow

31.31129, -92.44514

Hourly Observations for December 5, 2020

Temp ( °F °C ) Dew Point ( °F °C ) Humidity (%) Winds ( mph kmh ) Pressure ( in mb ) Visibility ( mi km ) Precip ( " mm )
12:34 am 00:34 Partly Cloudy 34 1.1 34 1.1 100 100 Calm 30.24 1024 3 5 0.00 0.00
12:36 am 00:36 Partly Cloudy 34 1.1 34 1.1 100 100 Calm 30.24 1024 2 2 0.00 0.00
12:38 am 00:38 Mostly Cloudy 34 1.1 34 1.1 100 100 Calm 30.24 1024 1 1 0.00 0.00
12:50 am 00:50 Mostly Cloudy 34 1 34 1 100 100 NNW 3 6 30.23 1024 0 0 0.00 0.00
12:53 am 00:53 Mostly Cloudy 34 1.1 34 1.1 100 100 Calm 30.25 1024 0 0 0.00 0.00
1:00 am 01:00 Mostly Cloudy 33 0.6 33 0.6 100 100 N 3 6 30.23 1024 1 1 0.00 0.00
1:08 am 01:08 Cloudy 33 0.6 33 0.6 100 100 Calm 30.23 1024 2 2 0.00 0.00
1:15 am 01:15 Mostly Cloudy 34 1.1 33 0.6 97 97 NNW 3 6 30.23 1024 1 1 0.00 0.00
1:23 am 01:23 Mostly Cloudy 33 0.6 33 0.6 100 100 NNW 3 6 30.23 1024 0 0 0.00 0.00
1:53 am 01:53 Mostly Cloudy 33 0.6 33 0.6 100 100 Calm 30.24 1024 1 1 0.00 0.00
2:07 am 02:07 Mostly Cloudy 33 0.6 33 0.6 100 100 Calm 30.23 1024 0 0 0.00 0.00
2:40 am 02:40 Mostly Cloudy 33 0.6 33 0.6 100 100 Calm 30.23 1024 0 0 0.00 0.00
2:53 am 02:53 Mostly Cloudy 32 0 32 0 100 100 Calm 30.25 1024 1 1 0.00 0.00
2:59 am 02:59 Mostly Cloudy 32 0 32 0 100 100 Calm 30.25 1024 0 0 0.00 0.00
3:22 am 03:22 Mostly Cloudy 33 0.6 33 0.6 100 100 Calm 30.25 1025 1 1 0.00 0.00
3:35 am 03:35 Mostly Cloudy 33 0.6 33 0.6 100 100 Calm 30.24 1024 0 0 0.00 0.00
3:53 am 03:53 Mostly Cloudy 32 0 32 0 100 100 NNW 3 6 30.25 1024 0 0 0.00 0.00
4:11 am 04:11 Mostly Cloudy 31 -0.6 31 -0.6 100 100 NNW 5 7 30.24 1024 1 1 0.00 0.00
4:53 am 04:53 Mostly Cloudy 32 0 32 0 100 100 Calm 30.26 1025 1 1 0.00 0.00
5:11 am 05:11 Mostly Cloudy 31 -0.6 31 -0.6 100 100 N 3 6 30.26 1025 0 0 0.00 0.00
5:44 am 05:44 Mostly Cloudy 31 -0.6 30 -1.1 96 96 Calm 30.26 1025 1 1 0.00 0.00
5:53 am 05:53 Mostly Cloudy 31 -0.6 31 -0.6 100 100 Calm 30.27 1025 1 1 0.00 0.00
6:04 am 06:04 Mostly Cloudy 31 -0.6 31 -0.6 100 100 Calm 30.26 1025 1 2 0.00 0.00
6:13 am 06:13 Mostly Cloudy 31 -0.6 31 -0.6 100 100 Calm 30.26 1025 1 1 0.00 0.00
6:21 am 06:21 Mostly Cloudy 31 -0.6 31 -0.6 100 100 Calm 30.26 1025 0 0 0.00 0.00
6:51 am 06:51 Mostly Cloudy 30 -1 30 -1 100 100 Calm 30.27 1025 1 1 0.00 0.00
6:53 am 06:53 Mostly Cloudy 31 -0.6 31 -0.6 100 100 Calm 30.28 1025 1 1 0.00 0.00
7:09 am 07:09 Mostly Cloudy 31 -0.6 30 -1.1 96 96 Calm 30.27 1025 0 0 0.00 0.00
7:24 am 07:24 Mostly Cloudy 31 -0.6 31 -0.6 100 100 Calm 30.27 1025 0 0 0.00 0.00
7:53 am 07:53 Mostly Cloudy 32 0 32 0 100 100 Calm 30.29 1026 0 0 0.00 0.00
8:11 am 08:11 Mostly Cloudy 33 0.6 33 0.6 100 100 Calm 30.28 1025 0 0 0.00 0.00
8:19 am 08:19 Mostly Cloudy 34 1.1 33 0.6 97 97 Calm 30.27 1025 1 2 0.00 0.00
8:23 am 08:23 Mostly Cloudy 35 1.7 34 1.1 96 96 Calm 30.27 1025 3 5 0.00 0.00
8:35 am 08:35 Partly Cloudy 35 1.7 35 1.7 100 100 Calm 30.27 1025 4 6 0.00 0.00
8:53 am 08:53 Partly Cloudy 37 2.8 37 2.8 100 100 SSW 3 6 30.30 1026 4 6 0.00 0.00
9:53 am 09:53 Sunny 44 6.7 41 5 89 89 NW 5 7 30.29 1026 6 10 0.00 0.00
10:53 am 10:53 Sunny 48 8.9 43 6.1 83 83 Calm 30.26 1025 9 14 0.00 0.00
11:53 am 11:53 Sunny 51 10.6 42 5.6 71 71 Calm 30.24 1024 10 16 0.00 0.00
12:53 pm 12:53 Sunny 52 11.1 41 5 66 66 Calm 30.20 1023 10 16 0.00 0.00
1:53 pm 13:53 Sunny 53 11.7 41 5 64 64 Calm 30.17 1022 9 14 0.00 0.00
2:53 pm 14:53 Sunny 52 11.1 44 6.7 75 75 WSW 7 11 30.18 1022 10 16 0.00 0.00
3:53 pm 15:53 Sunny 51 10.6 44 6.7 77 77 Calm 30.16 1022 10 16 0.00 0.00
4:53 pm 16:53 Sunny 50 10 44 6.7 80 80 WSW 3 6 30.18 1022 9 14 0.00 0.00
5:53 pm 17:53 Clear 46 7.8 43 6.1 89 89 Calm 30.17 1022 10 16 0.00 0.00
6:53 pm 18:53 Clear 44 6.7 43 6.1 96 96 Calm 30.19 1022 7 11 0.00 0.00
7:53 pm 19:53 Clear 43 6.1 41 5 93 93 Calm 30.19 1022 10 16 0.00 0.00
8:53 pm 20:53 Clear 43 6.1 41 5 93 93 Calm 30.17 1022 10 16 0.00 0.00
9:53 pm 21:53 Clear 41 5 40 4.4 96 96 Calm 30.18 1022 8 13 0.00 0.00
10:53 pm 22:53 Cloudy 42 5.6 41 5 96 96 Calm 30.18 1022 8 13 0.00 0.00
11:53 pm 23:53 Cloudy 43 6.1 42 5.6 97 97 Calm 30.16 1021 6 10 0.00 0.00

Powered by AerisWeather